Weather History for KONL - October, 2012

Change the Weather History Date:

Monday, October 15, 2012

  Actual Average Record
Temperature  
Mean Temperature 60 °F -  
Max Temperature 81 °F 60 °F 91 °F (1958)
Min Temperature 40 °F 34 °F 21 °F (1974)
Degree Days  
Heating Degree Days 4    
Growing Degree Days 10 (Base 50)    
Moisture  
Dew Point 33 °F    
Average Humidity 41    
Maximum Humidity 74    
Minimum Humidity 16    
Precipitation  
Precipitation 0.00 in - - ()
Sea Level Pressure  
Sea Level Pressure 29.84 in    
Wind  
Wind Speed 7 mph (SSW)    
Max Wind Speed 15 mph    
Max Gust Speed 22 mph    
Visibility 10 miles    
Events      
Averages and records for this station are not official NWS values.
T = Trace of Precipitation, MM = Missing Value Source: NWS Daily Summary

Daily Weather History Graph

Daily Weather History Graph

Search for Another Location

Airport or City:

Trip Planner

Search our weather history database for the weather conditions in past years. The results will help you decide how hot, cold, wet, or windy it might be!

Date:

Astronomy

Oct. 15, 2012 Rise Set
Actual Time 7:48 AM CDT 6:51 PM CDT
Civil Twilight 7:19 AM CDT 7:20 PM CDT
Nautical Twilight 6:47 AM CDT 7:52 PM CDT
Astronomical Twilight 6:14 AM CDT 8:25 PM CDT
Moon 8:01 AM CDT (10/15) 6:50 PM CDT (10/15)
Length of Visible Light 12h 00m
Length of Day
11h 03m
New Moon, 0% of the Moon is Illuminated
Oct 15
New Moon
Oct 21
First Quarter
Oct 29
Full
Nov 6
Last Quarter
Nov 13
New

Hourly Weather History & Observations

Time (CDT) Temp. Windchill Dew Point Humidity Pressure Visibility Wind Dir Wind Speed Gust Speed Precip Events Conditions
12:15 AM 41.5 °F 37.1 °F 32.2 °F 69% 29.98 in 10.0 mi SW 6.9 mph - N/A   Clear
12:35 AM 42.6 °F 38.4 °F 32.2 °F 67% 29.98 in 10.0 mi WSW 6.9 mph - N/A   Clear
12:55 AM 47.1 °F - 33.3 °F 59% 29.98 in 10.0 mi West 6.9 mph - N/A   Clear
1:15 AM 45.5 °F 42.5 °F 32.7 °F 61% 29.98 in 10.0 mi WSW 5.8 mph - N/A   Clear
1:35 AM 46.6 °F - 33.3 °F 60% 29.98 in 10.0 mi WSW 3.5 mph - N/A   Clear
1:55 AM 46.6 °F - 33.3 °F 60% 29.97 in 10.0 mi WSW 3.5 mph - N/A   Clear
2:15 AM 46.6 °F - 33.3 °F 60% 29.97 in 10.0 mi WSW 3.5 mph - N/A   Clear
2:35 AM 46.9 °F - 33.4 °F 59% 29.97 in 10.0 mi WSW 6.9 mph - N/A   Clear
2:55 AM 47.3 °F - 33.8 °F 59% 29.97 in 10.0 mi WSW 6.9 mph - N/A   Clear
3:15 AM 46.8 °F - 33.4 °F 60% 29.97 in 10.0 mi WSW 5.8 mph - N/A   Clear
3:35 AM 45.9 °F 44.6 °F 33.4 °F 62% 29.96 in 10.0 mi WSW 3.5 mph - N/A   Clear
3:55 AM 44.8 °F 41.6 °F 33.1 °F 64% 29.95 in 10.0 mi WSW 5.8 mph - N/A   Clear
4:15 AM 44.2 °F 41.8 °F 32.9 °F 64% 29.95 in 10.0 mi WSW 4.6 mph - N/A   Clear
4:35 AM 44.6 °F 42.2 °F 33.8 °F 66% 29.95 in 10.0 mi WSW 4.6 mph - N/A   Clear
4:55 AM 44.1 °F 41.5 °F 33.3 °F 66% 29.95 in 10.0 mi WSW 4.6 mph - N/A   Clear
5:15 AM 44.4 °F 42.0 °F 33.1 °F 64% 29.95 in 10.0 mi WSW 4.6 mph - N/A   Clear
5:35 AM 44.6 °F 43.1 °F 33.8 °F 66% 29.95 in 10.0 mi WSW 3.5 mph - N/A   Clear
5:55 AM 44.6 °F 43.1 °F 33.3 °F 64% 29.94 in 10.0 mi West 3.5 mph - N/A   Clear
6:15 AM 42.8 °F 41.1 °F 32.9 °F 68% 29.93 in 10.0 mi WSW 3.5 mph - N/A   Clear
6:35 AM 43.0 °F 39.5 °F 32.9 °F 68% 29.93 in 10.0 mi WSW 5.8 mph - N/A   Clear
6:55 AM 43.0 °F 40.3 °F 33.1 °F 68% 29.93 in 10.0 mi SW 4.6 mph - N/A   Clear
7:15 AM 42.1 °F 39.2 °F 32.9 °F 70% 29.93 in 10.0 mi WSW 4.6 mph - N/A   Clear
7:35 AM 43.7 °F 40.3 °F 33.3 °F 67% 29.93 in 10.0 mi WSW 5.8 mph - N/A   Clear
7:55 AM 40.1 °F 36.9 °F 32.4 °F 74% 29.93 in 10.0 mi WSW 4.6 mph - N/A   Clear
8:15 AM 41.4 °F 39.4 °F 32.7 °F 71% 29.93 in 10.0 mi SW 3.5 mph - N/A   Clear
8:35 AM 41.9 °F 40.0 °F 33.1 °F 71% 29.93 in 10.0 mi SW 3.5 mph - N/A   Clear
8:55 AM 45.7 °F 44.4 °F 33.8 °F 63% 29.93 in 10.0 mi SW 3.5 mph - N/A   Clear
9:15 AM 49.1 °F - 34.5 °F 57% 29.93 in 10.0 mi Calm Calm - N/A   Clear
9:35 AM 54.7 °F - 35.8 °F 49% 29.93 in 10.0 mi SSW 4.6 mph - N/A   Clear
9:55 AM 60.1 °F - 35.1 °F 39% 29.92 in 10.0 mi SSW 5.8 mph - N/A   Clear
10:15 AM 63.1 °F - 34.7 °F 35% 29.92 in 10.0 mi SSW 6.9 mph - N/A   Clear
10:35 AM 67.3 °F - 34.5 °F 30% 29.91 in 10.0 mi SSW 5.8 mph - N/A   Clear
10:55 AM 70.7 °F - 34.3 °F 26% 29.90 in 10.0 mi SSW 11.5 mph - N/A   Clear
11:15 AM 72.9 °F - 34.0 °F 24% 29.90 in 10.0 mi SSW 11.5 mph - N/A   Clear
11:35 AM 73.0 °F - 33.4 °F 23% 29.90 in 10.0 mi SSW 13.8 mph 18.4 mph N/A   Clear
11:55 AM 73.4 °F - 33.1 °F 23% 29.89 in 10.0 mi SSW 13.8 mph - N/A   Clear
12:15 PM 74.1 °F - 32.4 °F 22% 29.88 in 10.0 mi SW 12.7 mph - N/A   Clear
12:35 PM 75.7 °F - 32.5 °F 21% 29.88 in 10.0 mi SSW 13.8 mph 21.9 mph N/A   Clear
12:55 PM 76.6 °F - 32.0 °F 20% 29.87 in 10.0 mi SSW 12.7 mph 17.3 mph N/A   Clear
1:15 PM 77.2 °F - 32.0 °F 19% 29.85 in 10.0 mi SW 15.0 mph - N/A   Clear
1:35 PM 77.0 °F - 32.2 °F 19% 29.84 in 10.0 mi SSW 10.4 mph 17.3 mph N/A   Clear
1:55 PM 78.1 °F - 32.2 °F 19% 29.83 in 10.0 mi SW 10.4 mph 17.3 mph N/A   Clear
2:15 PM 78.8 °F - 32.7 °F 19% 29.81 in 10.0 mi South 10.4 mph - N/A   Clear
2:35 PM 79.2 °F - 32.9 °F 19% 29.80 in 10.0 mi South 11.5 mph - N/A   Clear
2:55 PM 79.7 °F - 32.0 °F 18% 29.79 in 10.0 mi South 12.7 mph 18.4 mph N/A   Clear
3:15 PM 80.6 °F - 31.5 °F 17% 29.78 in 10.0 mi SSW 11.5 mph 18.4 mph N/A   Clear
3:35 PM 79.9 °F - 30.9 °F 17% 29.77 in 10.0 mi South 11.5 mph 20.7 mph N/A   Clear
3:55 PM 80.1 °F - 31.5 °F 17% 29.77 in 10.0 mi SSW 12.7 mph 18.4 mph N/A   Clear
4:15 PM 80.8 °F - 31.1 °F 16% 29.76 in 10.0 mi South 11.5 mph 17.3 mph N/A   Clear
4:35 PM 80.2 °F - 31.5 °F 17% 29.76 in 10.0 mi South 13.8 mph 17.3 mph N/A   Clear
4:55 PM 79.9 °F - 31.1 °F 17% 29.74 in 10.0 mi South 11.5 mph - N/A   Clear
5:15 PM 81.5 °F - 31.6 °F 16% 29.73 in 10.0 mi South 12.7 mph - N/A   Clear
5:35 PM 80.8 °F - 31.3 °F 17% 29.72 in 10.0 mi South 12.7 mph - N/A   Clear
5:55 PM 78.8 °F - 30.9 °F 17% 29.72 in 10.0 mi South 6.9 mph - N/A   Clear
6:15 PM 77.2 °F - 31.6 °F 19% 29.72 in 10.0 mi South 6.9 mph - N/A   Clear
6:35 PM 74.1 °F - 32.0 °F 21% 29.71 in 10.0 mi SSE 6.9 mph - N/A   Clear
6:55 PM 71.1 °F - 32.4 °F 24% 29.71 in 10.0 mi SSE 5.8 mph - N/A   Clear
7:15 PM 69.8 °F - 32.9 °F 26% 29.71 in 10.0 mi SSE 6.9 mph - N/A   Clear
7:35 PM 67.8 °F - 33.6 °F 28% 29.71 in 10.0 mi SE 5.8 mph - N/A   Clear
7:55 PM 67.6 °F - 34.7 °F 30% 29.71 in 10.0 mi SE 5.8 mph - N/A   Clear
8:15 PM 66.4 °F - 35.2 °F 32% 29.70 in 10.0 mi SE 6.9 mph - N/A   Clear
8:35 PM 64.9 °F - 35.2 °F 33% 29.70 in 10.0 mi SE 6.9 mph - N/A   Clear
8:55 PM 64.0 °F - 35.6 °F 35% 29.70 in 10.0 mi SE 8.1 mph - N/A   Clear
9:15 PM 63.5 °F - 35.6 °F 35% 29.69 in 10.0 mi SE 9.2 mph - N/A   Clear
9:35 PM 62.6 °F - 36.0 °F 37% 29.69 in 10.0 mi SE 8.1 mph - N/A   Clear
9:55 PM 62.1 °F - 36.3 °F 38% 29.69 in 10.0 mi SE 5.8 mph - N/A   Clear
10:15 PM 61.2 °F - 36.0 °F 39% 29.69 in 10.0 mi SE 9.2 mph - N/A   Clear
10:35 PM 59.2 °F - 36.0 °F 42% 29.69 in 10.0 mi SSE 4.6 mph - N/A   Clear
10:55 PM 58.6 °F - 35.4 °F 42% 29.68 in 10.0 mi South 5.8 mph - N/A   Clear
11:15 PM 59.4 °F - 34.2 °F 39% 29.67 in 10.0 mi South 4.6 mph - N/A   Clear
11:35 PM 59.5 °F - 34.9 °F 40% 29.66 in 10.0 mi South 5.8 mph - N/A   Clear
11:55 PM 61.7 °F - 36.0 °F 38% 29.66 in 10.0 mi SSW 10.4 mph - N/A   Clear